STARLINK-30435, 57842

Orbit data source: Space-Track

STARLINK-30435, 57842 is a payload satellite owned by SpaceX/Seattle (US) in LEO that was launched on Tue, 12 Sep 2023 UTC via an FALCON 9 launch vehicle from the Air Force Western Test Range (AFWTR). Payload-class satellites include a variety of spacecraft equipped with specific instruments for various scientific and technological missions. These include communications satellites like Starlink; space stations such as the ISS; scientific satellites like the Hubble; Earth observation satellites from companies like Planet Labs, Umbra, and HawkEye 360; GPS; miniature CubeSats for education and research; and military/defense satellites.

Loading next visibility...
Identifier
57842, 2023-141C
Orbit
LEO
Country
Flag of USUS
Related business
Manufacturer
SpaceX/Seattle
Mission
Operational Commercial Communications
Bus & Motor
STARLINK V2M, Unknown motor
Mass
730 kg wet, ~700 kg dry
Launch date (UTC)
2023-09-12 (3 years ago)
Launch vehicle
FALCON 9
Launch site
Air Force Western Test Range (AFWTR)
Object type
Payload
Rocket body
Debris
Shape & HBR
Box + 2 Pan, 17.7 m
Radar Cross Section
33.884 m², Large (>1 m²)

Expand to show TLE details & history
Last TLE update: 2 days ago

TLE from 2 days ago
0 STARLINK-30435
1 57842U 23141C   26171.18819864  .00001156  00000-0  49004-4 0  9993
2 57842  53.1607 167.6787 0001262  75.6890 284.4251 15.31703809156025
Epoch: 2026-06-20T04:31Z
TLE epoch observation values (Epoch: 2026-06-20T04:31:00.362Z)
Latitude
-0.00006°
Longitude
-168.47926°
Altitude
471.414 km
Speed
7.632 km/s
True Right ascension
11h 10m 42s
True Declination
0° 00' 00"
Sunlit
Object was in daylight at epoch
Visualization orbit readout
Latitude
Unknown
Longitude
Unknown
Altitude
Unknown
Speed
Unknown
Apparent Right ascension
Unknown
Apparent Declination
Unknown
Sunlit
N/A
Visualization observer readout
Local Sidereal Time
21:33:28
Azimuth
Unknown
Elevation
Unknown
Doppler factor
Unknown
Orbital elements
Apogee altitude
471.849 km
Perigee altitude
470.121 km
Semi-major axis
6,849.122 km
Eccentricity
0.00013
Inclination
53.1607°
RAAN
167.6787°
Arg. of periapsis
75.689°
True anomaly
284.41109°
Mean anomaly
284.4251°
Eccentric anomaly
284.4181°
Mean motion
3.82905 °/min
Orbital period
94.02 mins
BSTAR
0.000049004
Loading maneuver chart data...
Computing Atmospheric mass density...
Loading historical data...
Loading historical data...
Loading historical data...
Loading historical data...
Loading historical data...
Loading historical data...
Loading historical data...

Documentation

Showing up to 5 results
|